STARLINK-11200 [DTC] (60310 NORAD) Tracking and Keplerian Element Data

This shows tracking and keplerian element data for the satellite.

Feedback or suggestion? Click here.




ElementValue
Catalog60310
NameSTARLINK-11200 [DTC]
Epoch Orbit1323
Epoch Day286.83928577
Epoch Year2024
RAAN154.4987
Inclination53.1579
Eccentricity9.81E-05
Argument of Perigee97.6043
Mean Anonmoly262.5089
Mean Motion15.75015856
Decay Rate-7.819E-05
L11 60310U 24133K 24286.83928577 -.00007819 00000+0 -47356-4 0 9999
L22 60310 53.1579 154.4987 0000981 97.6043 262.5089 15.75015856 13231



Live tracking and technical data element details for STARLINK-11200 [DTC] (NORAD 60310). STARLINK-11200 [DTC] can be tracked NOW for your location showing map with azimuth and elevation plus other details from your city location.







IsCatalogInMostPopularTable: catalog: 60310, numindb: 7
Update: records affected: 1



GetName: 60310 STARLINK-11200 [DTC]

Hit Count: updated at: Tue, 03 Dec 2024 02:38:46 GMT